Time,TemperatureF,DewpointF,PressureIn,WindDirection,WindDirectionDegrees,WindSpeedMPH,WindSpeedGustMPH,Humidity,HourlyPrecipIn,Conditions,Clouds,dailyrainin,SolarRadiationWatts/m^2,SoftwareType,DateUTC
2013-08-01 00:02:00,81.0,52.0,-100.00,SSW,193,9.0,15.0,36,-99.99,,,-99.99,0.000000,,2013-08-01 06:02:00,
2013-08-01 00:12:00,81.0,53.0,-100.00,South,189,7.0,13.0,38,-99.99,,,-99.99,0.000000,,2013-08-01 06:12:00,
2013-08-01 00:33:00,80.0,54.0,-100.00,South,171,1.0,4.0,40,-99.99,,,-99.99,0.000000,,2013-08-01 06:33:00,
2013-08-01 00:42:00,80.0,54.0,-100.00,WNW,290,0.0,2.0,41,-99.99,,,-99.99,0.000000,,2013-08-01 06:42:00,
2013-08-01 01:02:00,79.0,58.0,-100.00,NW,324,3.0,6.0,48,-99.99,,,-99.99,0.000000,,2013-08-01 07:02:00,
2013-08-01 01:12:00,78.0,57.0,-100.00,NW,319,7.0,11.0,49,-99.99,,,-99.99,0.000000,,2013-08-01 07:12:00,
2013-08-01 01:23:00,78.0,56.0,-100.00,NW,315,6.0,9.0,47,-99.99,,,-99.99,0.000000,,2013-08-01 07:23:00,
2013-08-01 01:32:00,78.0,56.0,-100.00,NW,315,6.0,9.0,47,-99.99,,,-99.99,0.000000,,2013-08-01 07:32:00,
2013-08-01 01:43:00,78.0,56.0,-100.00,NW,320,6.0,8.0,46,-99.99,,,-99.99,0.000000,,2013-08-01 07:43:00,
2013-08-01 01:55:00,78.0,55.0,-100.00,NW,318,3.0,7.0,44,-99.99,,,-99.99,0.000000,,2013-08-01 07:55:00,
2013-08-01 02:04:00,78.0,55.0,-100.00,NW,318,3.0,7.0,44,-99.99,,,-99.99,0.000000,,2013-08-01 08:04:00,
2013-08-01 02:15:00,78.0,55.0,-100.00,NW,318,3.0,7.0,44,-99.99,,,-99.99,0.000000,,2013-08-01 08:15:00,
2013-08-01 02:25:00,79.0,55.0,-100.00,ENE,70,3.0,7.0,43,-99.99,,,-99.99,0.000000,,2013-08-01 08:25:00,
2013-08-01 02:37:00,79.0,55.0,-100.00,ENE,70,3.0,7.0,43,-99.99,,,-99.99,0.000000,,2013-08-01 08:37:00,
2013-08-01 02:45:00,78.0,57.0,-100.00,ESE,108,5.0,9.0,48,-99.99,,,-99.99,0.000000,,2013-08-01 08:45:00,
2013-08-01 03:19:00,74.0,56.0,-100.00,WSW,245,5.0,11.0,53,-99.99,,,-99.99,0.000000,,2013-08-01 09:19:00,
2013-08-01 03:39:00,75.0,56.0,-100.00,NW,318,6.0,15.0,52,-99.99,,,-99.99,0.000000,,2013-08-01 09:39:00,
2013-08-01 03:49:00,72.0,59.0,-100.00,NNW,333,12.0,19.0,61,-99.99,,,-99.99,0.000000,,2013-08-01 09:49:00,
2013-08-01 04:07:00,70.0,60.0,-100.00,NNW,347,15.0,22.0,70,-99.99,,,-99.99,0.000000,,2013-08-01 10:07:00,
2013-08-01 04:20:00,71.0,59.0,-100.00,NNW,341,14.0,23.0,66,-99.99,,,-99.99,0.000000,,2013-08-01 10:20:00,
2013-08-01 04:27:00,71.0,59.0,-100.00,NNW,347,11.0,17.0,66,-99.99,,,-99.99,0.000000,,2013-08-01 10:27:00,
2013-08-01 04:40:00,71.0,59.0,-100.00,NNW,347,11.0,17.0,66,-99.99,,,-99.99,0.000000,,2013-08-01 10:40:00,
2013-08-01 04:51:00,72.0,58.0,-100.00,North,356,8.0,12.0,63,-99.99,,,-99.99,0.000000,,2013-08-01 10:51:00,
2013-08-01 05:11:00,72.0,58.0,-100.00,NNW,342,7.0,9.0,61,-99.99,,,-99.99,0.000000,,2013-08-01 11:11:00,
2013-08-01 05:32:00,72.0,59.0,-100.00,NNW,345,7.0,8.0,63,-99.99,,,-99.99,0.000000,,2013-08-01 11:32:00,
2013-08-01 05:39:00,72.0,59.0,-100.00,NNW,345,7.0,8.0,63,-99.99,,,-99.99,0.000000,,2013-08-01 11:39:00,
2013-08-01 05:48:00,73.0,58.0,-100.00,NNW,348,4.0,6.0,60,-99.99,,,-99.99,0.000000,,2013-08-01 11:48:00,
2013-08-01 06:11:00,73.0,58.0,-100.00,NNE,30,2.0,4.0,58,-99.99,,,-99.99,0.000000,,2013-08-01 12:11:00,
2013-08-01 06:18:00,73.0,58.0,-100.00,ENE,66,1.0,4.0,59,-99.99,,,-99.99,0.000000,,2013-08-01 12:18:00,
2013-08-01 06:36:00,73.0,57.0,-100.00,East,94,3.0,8.0,58,-99.99,,,-99.99,0.000000,,2013-08-01 12:36:00,
2013-08-01 06:45:00,73.0,58.0,-100.00,East,100,4.0,7.0,59,-99.99,,,-99.99,0.000000,,2013-08-01 12:45:00,
2013-08-01 07:05:00,72.0,58.0,-100.00,ENE,78,4.0,9.0,61,-99.99,,,-99.99,2.090000,,2013-08-01 13:05:00,
2013-08-01 07:10:00,72.0,58.0,-100.00,ENE,78,4.0,9.0,61,-99.99,,,-99.99,2.090000,,2013-08-01 13:10:00,
2013-08-01 07:19:00,73.0,58.0,-100.00,East,98,4.0,8.0,59,-99.99,,,-99.99,9.070000,,2013-08-01 13:19:00,
2013-08-01 09:00:00,77.0,58.0,-100.00,SSE,155,5.0,8.0,51,-99.99,,,-99.99,395.390015,,2013-08-01 15:00:00,
2013-08-01 09:10:00,77.0,58.0,-100.00,SE,135,3.0,7.0,51,-99.99,,,-99.99,338.209991,,2013-08-01 15:10:00,
2013-08-01 09:19:00,78.0,58.0,-100.00,SE,134,3.0,8.0,51,-99.99,,,-99.99,378.649994,,2013-08-01 15:19:00,
2013-08-01 09:38:00,77.0,58.0,-100.00,SSE,155,5.0,8.0,51,-99.99,,,-99.99,395.390015,,2013-08-01 15:38:00,
2013-08-01 09:47:00,77.0,58.0,-100.00,SSE,155,5.0,8.0,51,-99.99,,,-99.99,395.390015,,2013-08-01 15:47:00,
2013-08-01 11:12:00,78.0,59.0,-100.00,SSE,153,2.0,5.0,52,-99.99,,,-99.99,246.160004,,2013-08-01 17:12:00,
2013-08-01 11:30:00,80.0,58.0,-100.00,SE,142,5.0,9.0,47,-99.99,,,-99.99,633.179993,,2013-08-01 17:30:00,
2013-08-01 11:40:00,80.0,58.0,-100.00,SE,142,5.0,9.0,47,-99.99,,,-99.99,633.179993,,2013-08-01 17:40:00,
2013-08-01 11:58:00,81.0,58.0,-100.00,SE,135,3.0,7.0,46,-99.99,,,-99.99,734.989990,,2013-08-01 17:58:00,
2013-08-01 12:08:00,82.0,57.0,-100.00,SSE,165,4.0,14.0,42,-99.99,,,-99.99,772.650024,,2013-08-01 18:08:00,
2013-08-01 12:17:00,82.0,57.0,-100.00,South,181,5.0,12.0,42,-99.99,,,-99.99,790.780029,,2013-08-01 18:17:00,
2013-08-01 12:30:00,83.0,57.0,-100.00,South,174,5.0,9.0,41,-99.99,,,-99.99,806.119995,,2013-08-01 18:30:00,
2013-08-01 13:07:00,83.0,54.0,-100.00,SE,142,7.0,14.0,36,-99.99,,,-99.99,845.169983,,2013-08-01 19:07:00,
2013-08-01 13:29:00,84.0,52.0,-100.00,SSE,153,7.0,15.0,32,-99.99,,,-99.99,823.549988,,2013-08-01 19:29:00,
2013-08-01 13:37:00,84.0,52.0,-100.00,SSE,153,7.0,15.0,32,-99.99,,,-99.99,823.549988,,2013-08-01 19:37:00,
2013-08-01 13:49:00,85.0,53.0,-100.00,SSE,153,8.0,17.0,33,-99.99,,,-99.99,887.010010,,2013-08-01 19:49:00,
2013-08-01 14:05:00,85.0,51.0,-100.00,SSE,149,9.0,19.0,31,-99.99,,,-99.99,793.570007,,2013-08-01 20:05:00,
2013-08-01 14:36:00,86.0,49.0,-100.00,SSE,155,10.0,21.0,27,-99.99,,,-99.99,829.130005,,2013-08-01 20:36:00,
2013-08-01 14:47:00,87.0,48.0,-100.00,SSE,156,11.0,18.0,26,-99.99,,,-99.99,833.309998,,2013-08-01 20:47:00,
2013-08-01 15:03:00,87.0,48.0,-100.00,SE,133,10.0,19.0,26,-99.99,,,-99.99,825.640015,,2013-08-01 21:03:00,
2013-08-01 15:14:00,87.0,49.0,-100.00,South,170,9.0,18.0,26,-99.99,,,-99.99,758.000000,,2013-08-01 21:14:00,
2013-08-01 15:25:00,87.0,46.0,-100.00,South,181,10.0,21.0,24,-99.99,,,-99.99,536.950012,,2013-08-01 21:25:00,
2013-08-01 15:34:00,87.0,46.0,-100.00,South,181,10.0,21.0,24,-99.99,,,-99.99,536.950012,,2013-08-01 21:34:00,
2013-08-01 15:43:00,88.0,46.0,-100.00,South,180,9.0,16.0,23,-99.99,,,-99.99,696.640015,,2013-08-01 21:43:00,
2013-08-01 16:06:00,88.0,46.0,-100.00,South,182,7.0,18.0,23,-99.99,,,-99.99,635.969971,,2013-08-01 22:06:00,
2013-08-01 16:15:00,89.0,46.0,-100.00,SSE,163,11.0,18.0,23,-99.99,,,-99.99,689.659973,,2013-08-01 22:15:00,
2013-08-01 16:23:00,88.0,44.0,-100.00,South,179,9.0,21.0,21,-99.99,,,-99.99,523.000000,,2013-08-01 22:23:00,
2013-08-01 16:35:00,88.0,44.0,-100.00,South,179,9.0,21.0,21,-99.99,,,-99.99,523.000000,,2013-08-01 22:35:00,
2013-08-01 16:46:00,88.0,44.0,-100.00,SSE,162,10.0,17.0,21,-99.99,,,-99.99,688.270020,,2013-08-01 22:46:00,
2013-08-01 16:58:00,89.0,45.0,-100.00,South,181,8.0,18.0,21,-99.99,,,-99.99,656.890015,,2013-08-01 22:58:00,
2013-08-01 17:07:00,89.0,45.0,-100.00,South,181,8.0,18.0,21,-99.99,,,-99.99,656.890015,,2013-08-01 23:07:00,
2013-08-01 17:25:00,89.0,46.0,-100.00,SSE,159,7.0,23.0,23,-99.99,,,-99.99,401.660004,,2013-08-01 23:25:00,
2013-08-01 17:32:00,89.0,46.0,-100.00,SSE,159,7.0,23.0,23,-99.99,,,-99.99,401.660004,,2013-08-01 23:32:00,
2013-08-01 17:47:00,88.0,47.0,-100.00,South,178,6.0,16.0,24,-99.99,,,-99.99,304.730011,,2013-08-01 23:47:00,
2013-08-01 18:07:00,88.0,47.0,-100.00,SSE,153,6.0,12.0,24,-99.99,,,-99.99,350.760010,,2013-08-02 00:07:00,
2013-08-01 18:27:00,88.0,47.0,-100.00,SE,139,9.0,17.0,24,-99.99,,,-99.99,401.660004,,2013-08-02 00:27:00,
2013-08-01 18:36:00,88.0,47.0,-100.00,SE,139,9.0,17.0,24,-99.99,,,-99.99,401.660004,,2013-08-02 00:36:00,
2013-08-01 18:47:00,87.0,47.0,-100.00,SE,134,9.0,21.0,24,-99.99,,,-99.99,148.529999,,2013-08-02 00:47:00,
2013-08-01 19:03:00,87.0,46.0,-100.00,SSE,148,8.0,15.0,24,-99.99,,,-99.99,96.230003,,2013-08-02 01:03:00,
2013-08-01 19:16:00,87.0,46.0,-100.00,SSE,148,8.0,15.0,24,-99.99,,,-99.99,96.230003,,2013-08-02 01:16:00,
2013-08-01 19:26:00,87.0,44.0,-100.00,SSE,161,6.0,12.0,22,-99.99,,,-99.99,78.800003,,2013-08-02 01:26:00,
2013-08-01 19:36:00,87.0,44.0,-100.00,SSE,161,6.0,12.0,22,-99.99,,,-99.99,78.800003,,2013-08-02 01:36:00,
2013-08-01 19:46:00,87.0,44.0,-100.00,SSE,158,8.0,17.0,22,-99.99,,,-99.99,131.100006,,2013-08-02 01:46:00,
2013-08-01 20:15:00,85.0,46.0,-100.00,South,174,4.0,7.0,25,-99.99,,,-99.99,11.160000,,2013-08-02 02:15:00,
2013-08-01 20:26:00,84.0,46.0,-100.00,South,174,4.0,8.0,26,-99.99,,,-99.99,5.580000,,2013-08-02 02:26:00,
2013-08-01 20:34:00,84.0,46.0,-100.00,South,174,4.0,8.0,26,-99.99,,,-99.99,5.580000,,2013-08-02 02:34:00,
2013-08-01 20:45:00,83.0,46.0,-100.00,South,189,4.0,8.0,26,-99.99,,,-99.99,1.390000,,2013-08-02 02:45:00,
2013-08-01 21:07:00,83.0,44.0,-100.00,South,179,5.0,8.0,25,-99.99,,,-99.99,0.000000,,2013-08-02 03:07:00,
2013-08-01 21:12:00,83.0,44.0,-100.00,SSE,158,2.0,5.0,26,-99.99,,,-99.99,0.000000,,2013-08-02 03:12:00,
2013-08-01 21:46:00,81.0,46.0,-100.00,NNW,348,4.0,6.0,29,-99.99,,,-99.99,0.000000,,2013-08-02 03:46:00,
2013-08-01 22:02:00,81.0,46.0,-100.00,NNW,344,4.0,6.0,29,-99.99,,,-99.99,0.000000,,2013-08-02 04:02:00,
2013-08-01 22:12:00,80.0,46.0,-100.00,NNW,331,4.0,8.0,29,-99.99,,,-99.99,0.000000,,2013-08-02 04:12:00,
2013-08-01 22:22:00,79.0,47.0,-100.00,NW,321,6.0,9.0,32,-99.99,,,-99.99,0.000000,,2013-08-02 04:22:00,
2013-08-01 22:33:00,79.0,47.0,-100.00,NW,321,6.0,9.0,32,-99.99,,,-99.99,0.000000,,2013-08-02 04:33:00,
2013-08-01 22:43:00,80.0,47.0,-100.00,NW,326,4.0,6.0,30,-99.99,,,-99.99,0.000000,,2013-08-02 04:43:00,
2013-08-01 23:02:00,80.0,47.0,-100.00,NW,321,3.0,5.0,31,-99.99,,,-99.99,0.000000,,2013-08-02 05:02:00,
2013-08-01 23:12:00,79.0,47.0,-100.00,NW,321,3.0,5.0,32,-99.99,,,-99.99,0.000000,,2013-08-02 05:12:00,
2013-08-01 23:22:00,79.0,48.0,-100.00,NNW,329,4.0,6.0,33,-99.99,,,-99.99,0.000000,,2013-08-02 05:22:00,
2013-08-01 23:32:00,79.0,48.0,-100.00,NNW,329,4.0,6.0,33,-99.99,,,-99.99,0.000000,,2013-08-02 05:32:00,
2013-08-01 23:43:00,79.0,48.0,-100.00,NNW,344,4.0,6.0,34,-99.99,,,-99.99,0.000000,,2013-08-02 05:43:00,